This is the latest recevied weather packets stored in our database for station/object N4DBJ. If no packets are shown the sender has not sent any weather packets the latest 10 day(s).
| Time | Temp. | Humidity | Pressure | Rain* | Wind** | Luminosity | Snow |
|---|---|---|---|---|---|---|---|
| 1778005196 | 21.67° C | 60% | 1007.5 hPa | 0 mm | - | 212 W/m² | - |
| 1778004894 | 21.11° C | 61% | 1007.6 hPa | 0 mm | - | 320 W/m² | - |
| 1778004591 | 21.11° C | 68% | 1007.6 hPa | 0 mm | - | 267 W/m² | - |
| 1778004287 | 21.11° C | 63% | 1007.5 hPa | 0 mm | - | 176 W/m² | - |
| 1778003984 | 21.11° C | 65% | 1007.8 hPa | 0 mm | - | 198 W/m² | - |
| 1778003680 | 21.11° C | 66% | 1007.5 hPa | 0 mm | - | 293 W/m² | - |
| 1778003377 | 20.56° C | 71% | 1007.4 hPa | 0 mm | - | 270 W/m² | - |
| 1778003074 | 20.56° C | 70% | 1007.6 hPa | 0 mm | - | 233 W/m² | - |
| 1778002770 | 20° C | 68% | 1007.6 hPa | 0 mm | - | 140 W/m² | - |
| 1778002467 | 20.56° C | 69% | 1007.5 hPa | 0 mm | - | 144 W/m² | - |
| 1778002164 | 20.56° C | 71% | 1007.8 hPa | 0 mm | - | 154 W/m² | - |
| 1778001862 | 20° C | 72% | 1008.2 hPa | 0 mm | - | 162 W/m² | - |
| 1778001561 | 20.56° C | 70% | 1008 hPa | 0 mm | - | 164 W/m² | - |
| 1778001258 | 20.56° C | 71% | 1007.9 hPa | 0 mm | - | 244 W/m² | - |
| 1778000955 | 20.56° C | 70% | 1008.1 hPa | 0 mm | - | 229 W/m² | - |
| 1778000651 | 20.56° C | 70% | 1008.2 hPa | 0 mm | - | 346 W/m² | - |
| 1778000347 | 20.56° C | 72% | 1008.4 hPa | 0 mm | - | 308 W/m² | - |
| 1778000043 | 20° C | 71% | 1008.4 hPa | 0 mm | - | 235 W/m² | - |
| 1777999738 | 20° C | 70% | 1008.6 hPa | 0 mm | - | 209 W/m² | - |
| 1777999435 | 20° C | 69% | 1008.7 hPa | 0 mm | - | 212 W/m² | - |
| 1777999133 | 20° C | 72% | 1008.9 hPa | 0 mm | - | 180 W/m² | - |
| 1777998832 | 20° C | 71% | 1009.2 hPa | 0 mm | - | 175 W/m² | - |
| 1777998530 | 20° C | 70% | 1009.2 hPa | 0 mm | - | 158 W/m² | - |
| 1777998226 | 20° C | 69% | 1009.5 hPa | 0 mm | - | 141 W/m² | - |
| 1777997923 | 20.56° C | 70% | 1009.4 hPa | 0 mm | - | 174 W/m² | - |
* Rain latest hour (hover to see other rain measurements)
** Current wind speed in m/s (hover to see current wind gust speed)